{"data":{"norad_id":56943,"epoch":"2026-09-14T05:42:18.042048Z","epoch_age_seconds":741268,"freshness":"AGED","line1":"1 56943U 23084M   26257.23770882  .04924417  25723-5  61601-3 0  9995","line2":"2 56943  97.4777  52.8898 0011723 268.7756  91.2198 16.35922825182964","mean_motion":16.35922825,"eccentricity":0.0011723,"inclination_deg":97.4777,"raan_deg":52.8898,"arg_perigee_deg":268.7756,"mean_anomaly_deg":91.2198,"bstar":0.00061601,"rev_number":18296,"period_min":88.023712243272,"perigee_km":168.98667264583,"apogee_km":184.35507518702,"semimajor_km":6554.8078739164,"source":"CELESTRAK","updated_at":"2026-09-15T09:00:27.387681Z"}}